This is the latest recevied weather packets stored in our database for station/object KG4QXF. If no packets are shown the sender has not sent any weather packets the latest 1 day(s).
| Time | Temp. | Humidity | Pressure | Rain* | Wind** | Luminosity | Snow |
|---|---|---|---|---|---|---|---|
| 1778026402 | 20.56° C | 71% | 1018.4 hPa | 0 mm | 0 m/s | - | - |
| 1778026098 | 20.56° C | 70% | 1018.7 hPa | 0 mm | 0.45 m/s, 178° | - | - |
| 1778025796 | 20.56° C | 70% | 1018.7 hPa | 0 mm | 0 m/s | - | - |
| 1778025493 | 20.56° C | 69% | 1018.5 hPa | 0 mm | 0 m/s | - | - |
| 1778025190 | 21.11° C | 68% | 1018.6 hPa | 0 mm | 0 m/s | - | - |
| 1778024887 | 21.11° C | 67% | 1018.6 hPa | 0 mm | 0.45 m/s, 357° | - | - |
| 1778024585 | 21.11° C | 67% | 1018.3 hPa | 0 mm | 0 m/s | - | - |
| 1778024282 | 21.67° C | 66% | 1018.5 hPa | 0 mm | 0 m/s | - | - |
| 1778023980 | 21.67° C | 65% | 1018.5 hPa | 0 mm | 0.89 m/s, 184° | - | - |
| 1778023676 | 21.67° C | 65% | 1018.4 hPa | 0 mm | 0 m/s | - | - |
| 1778023374 | 21.67° C | 65% | 1018.3 hPa | 0 mm | 0.45 m/s, 42° | - | - |
| 1778023070 | 21.67° C | 66% | 1018.5 hPa | 0 mm | 0 m/s | - | - |
| 1778022769 | 21.67° C | 65% | 1018.5 hPa | 0 mm | 0.89 m/s, 151° | - | - |
| 1778022467 | 21.67° C | 64% | 1018.5 hPa | 0 mm | 0 m/s | - | - |
| 1778022163 | 22.22° C | 63% | 1018.6 hPa | 0 mm | 0.45 m/s, 140° | - | - |
| 1778021860 | 22.22° C | 63% | 1018.5 hPa | 0 mm | 0.89 m/s, 118° | - | - |
| 1778021557 | 22.22° C | 63% | 1018.6 hPa | 0 mm | 0.45 m/s, 308° | - | - |
| 1778021252 | 22.22° C | 62% | 1018.8 hPa | 0 mm | 0.89 m/s, 356° | - | - |
| 1778020950 | 22.22° C | 64% | 1018.6 hPa | 0 mm | 0 m/s | - | - |
| 1778020647 | 22.22° C | 64% | 1018.5 hPa | 0 mm | 0 m/s | - | - |
| 1778020344 | 22.78° C | 64% | 1018.8 hPa | 0 mm | 0.89 m/s, 216° | - | - |
| 1778020040 | 22.78° C | 62% | 1018.5 hPa | 0 mm | 1.34 m/s, 330° | - | - |
| 1778019736 | 22.78° C | 63% | 1018.7 hPa | 0 mm | 0.45 m/s, 133° | - | - |
| 1778019433 | 22.78° C | 63% | 1018.7 hPa | 0 mm | 0.45 m/s, 172° | - | - |
| 1778019130 | 22.78° C | 62% | 1018.6 hPa | 0 mm | 0.45 m/s, 47° | - | - |
* Rain latest hour (hover to see other rain measurements)
** Current wind speed in m/s (hover to see current wind gust speed)